Time,TemperatureF,DewpointF,PressureIn,WindDirection,WindDirectionDegrees,WindSpeedMPH,WindSpeedGustMPH,Humidity,HourlyPrecipIn,Conditions,Clouds,dailyrainin,SoftwareType,DateUTC
2013-01-24 00:03:00,29.0,15.0,30.01,South,178,0.0,0.0,56,0.00,,,0.00,,2013-01-24 05:03:00,
2013-01-24 00:12:00,29.0,15.0,30.01,South,178,0.0,0.0,56,0.00,,,0.00,,2013-01-24 05:12:00,
2013-01-24 00:22:00,29.0,16.0,30.00,South,178,0.0,1.0,59,0.00,,,0.00,,2013-01-24 05:22:00,
2013-01-24 00:33:00,29.0,16.0,29.99,South,178,0.0,1.0,58,0.00,,,0.00,,2013-01-24 05:33:00,
2013-01-24 00:43:00,29.0,16.0,29.99,South,178,0.0,1.0,58,0.00,,,0.00,,2013-01-24 05:43:00,
2013-01-24 00:53:00,29.0,16.0,29.98,South,178,0.0,1.0,58,0.00,,,0.00,,2013-01-24 05:53:00,
2013-01-24 01:03:00,29.0,16.0,29.97,South,178,0.0,1.0,58,0.00,,,0.00,,2013-01-24 06:03:00,
2013-01-24 01:12:00,29.0,16.0,29.97,South,178,0.0,1.0,58,0.00,,,0.00,,2013-01-24 06:12:00,
2013-01-24 01:22:00,29.0,16.0,29.97,South,178,0.0,1.0,58,0.00,,,0.00,,2013-01-24 06:22:00,
2013-01-24 01:32:00,29.0,16.0,29.97,South,178,0.0,2.0,58,0.00,,,0.00,,2013-01-24 06:32:00,
2013-01-24 01:42:00,29.0,16.0,29.97,South,178,0.0,2.0,58,0.00,,,0.00,,2013-01-24 06:42:00,
2013-01-24 01:53:00,29.0,16.0,29.96,South,178,0.0,1.0,58,0.00,,,0.00,,2013-01-24 06:53:00,
2013-01-24 02:03:00,29.0,16.0,29.97,South,178,0.0,0.0,58,0.00,,,0.00,,2013-01-24 07:03:00,
2013-01-24 02:12:00,29.0,16.0,29.97,South,178,0.0,0.0,58,0.00,,,0.00,,2013-01-24 07:12:00,
2013-01-24 02:23:00,29.0,16.0,29.96,South,178,0.0,0.0,59,0.00,,,0.00,,2013-01-24 07:23:00,
2013-01-24 02:33:00,29.0,16.0,29.95,South,178,0.0,0.0,59,0.00,,,0.00,,2013-01-24 07:33:00,
2013-01-24 02:43:00,29.0,16.0,29.95,South,178,0.0,0.0,59,0.00,,,0.00,,2013-01-24 07:43:00,
2013-01-24 02:53:00,29.0,17.0,29.95,South,178,0.0,1.0,61,0.00,,,0.00,,2013-01-24 07:53:00,
2013-01-24 03:02:00,29.0,18.0,29.93,South,178,0.0,1.0,63,0.00,,,0.00,,2013-01-24 08:02:00,
2013-01-24 03:12:00,29.0,18.0,29.93,South,178,0.0,1.0,63,0.00,,,0.00,,2013-01-24 08:12:00,
2013-01-24 03:23:00,29.0,18.0,29.93,South,178,0.0,2.0,63,0.00,,,0.00,,2013-01-24 08:23:00,
2013-01-24 03:33:00,29.0,18.0,29.92,South,178,0.0,1.0,64,0.00,,,0.00,,2013-01-24 08:33:00,
2013-01-24 03:43:00,29.0,18.0,29.92,South,178,0.0,1.0,64,0.00,,,0.00,,2013-01-24 08:43:00,
2013-01-24 03:53:00,29.0,18.0,29.91,South,178,0.0,0.0,63,0.00,,,0.00,,2013-01-24 08:53:00,
2013-01-24 04:03:00,30.0,19.0,29.91,South,178,0.0,0.0,62,0.00,,,0.00,,2013-01-24 09:03:00,
2013-01-24 04:13:00,30.0,19.0,29.91,South,178,0.0,0.0,62,0.00,,,0.00,,2013-01-24 09:13:00,
2013-01-24 04:23:00,30.0,19.0,29.91,South,178,0.0,0.0,62,0.00,,,0.00,,2013-01-24 09:23:00,
2013-01-24 04:33:00,31.0,19.0,29.91,South,178,0.0,0.0,61,0.00,,,0.00,,2013-01-24 09:33:00,
2013-01-24 04:43:00,31.0,19.0,29.91,South,178,0.0,0.0,61,0.00,,,0.00,,2013-01-24 09:43:00,
2013-01-24 04:53:00,31.0,19.0,29.91,South,179,0.0,0.0,61,0.00,,,0.00,,2013-01-24 09:53:00,
2013-01-24 05:03:00,31.0,19.0,29.92,South,178,0.0,0.0,61,0.00,,,0.00,,2013-01-24 10:03:00,
2013-01-24 05:12:00,31.0,19.0,29.92,South,178,0.0,0.0,61,0.00,,,0.00,,2013-01-24 10:12:00,
2013-01-24 05:23:00,31.0,20.0,29.93,South,178,1.0,3.0,62,0.00,,,0.00,,2013-01-24 10:23:00,
2013-01-24 05:33:00,31.0,20.0,29.94,South,178,0.0,0.0,64,0.00,,,0.00,,2013-01-24 10:33:00,
2013-01-24 05:43:00,31.0,20.0,29.94,South,178,0.0,0.0,64,0.00,,,0.00,,2013-01-24 10:43:00,
2013-01-24 05:53:00,32.0,22.0,29.96,WSW,251,0.0,3.0,67,0.00,,,0.00,,2013-01-24 10:53:00,
2013-01-24 06:03:00,33.0,23.0,29.97,WSW,253,0.0,2.0,66,0.00,,,0.00,,2013-01-24 11:03:00,
2013-01-24 06:12:00,33.0,23.0,29.97,WSW,253,0.0,2.0,66,0.00,,,0.00,,2013-01-24 11:12:00,
2013-01-24 06:23:00,34.0,22.0,29.98,WNW,294,0.0,3.0,62,0.00,,,0.00,,2013-01-24 11:23:00,
2013-01-24 06:33:00,34.0,21.0,29.99,WNW,294,0.0,2.0,59,0.00,,,0.00,,2013-01-24 11:33:00,
2013-01-24 06:43:00,34.0,21.0,29.99,WNW,294,0.0,2.0,59,0.00,,,0.00,,2013-01-24 11:43:00,
2013-01-24 06:53:00,34.0,20.0,30.00,WNW,294,0.0,2.0,57,0.00,,,0.00,,2013-01-24 11:53:00,
2013-01-24 07:03:00,33.0,19.0,30.01,WNW,294,0.0,1.0,56,0.00,,,0.00,,2013-01-24 12:03:00,
2013-01-24 07:12:00,33.0,19.0,30.01,WNW,294,0.0,1.0,56,0.00,,,0.00,,2013-01-24 12:12:00,
2013-01-24 07:23:00,33.0,19.0,30.03,WNW,294,0.0,1.0,55,0.00,,,0.00,,2013-01-24 12:23:00,
2013-01-24 07:33:00,32.0,18.0,30.05,West,273,1.0,4.0,55,0.00,,,0.00,,2013-01-24 12:33:00,
2013-01-24 07:43:00,32.0,18.0,30.05,West,273,1.0,4.0,55,0.00,,,0.00,,2013-01-24 12:43:00,
2013-01-24 07:53:00,32.0,18.0,30.05,SSW,202,0.0,2.0,56,0.00,,,0.00,,2013-01-24 12:53:00,
2013-01-24 08:03:00,31.0,17.0,30.06,SSW,202,0.0,2.0,56,0.00,,,0.00,,2013-01-24 13:03:00,
2013-01-24 08:13:00,31.0,17.0,30.06,SSW,202,0.0,2.0,56,0.00,,,0.00,,2013-01-24 13:13:00,
2013-01-24 08:23:00,31.0,17.0,30.07,SSW,202,0.0,2.0,55,0.00,,,0.00,,2013-01-24 13:23:00,
2013-01-24 08:33:00,31.0,17.0,30.09,West,273,0.0,2.0,56,0.00,,,0.00,,2013-01-24 13:33:00,
2013-01-24 08:43:00,31.0,17.0,30.09,West,273,0.0,2.0,56,0.00,,,0.00,,2013-01-24 13:43:00,
2013-01-24 08:53:00,31.0,17.0,30.10,West,276,0.0,3.0,56,0.00,,,0.00,,2013-01-24 13:53:00,
2013-01-24 09:03:00,31.0,16.0,30.11,NE,40,0.0,3.0,54,0.00,,,0.00,,2013-01-24 14:03:00,
2013-01-24 09:12:00,31.0,16.0,30.11,NE,40,0.0,3.0,54,0.00,,,0.00,,2013-01-24 14:12:00,
2013-01-24 09:23:00,32.0,16.0,30.12,WSW,248,1.0,3.0,52,0.00,,,0.00,,2013-01-24 14:23:00,
2013-01-24 09:33:00,33.0,17.0,30.13,NW,323,0.0,3.0,51,0.00,,,0.00,,2013-01-24 14:33:00,
2013-01-24 09:43:00,33.0,17.0,30.13,NW,323,0.0,3.0,51,0.00,,,0.00,,2013-01-24 14:43:00,
2013-01-24 09:54:00,35.0,17.0,30.15,WNW,285,2.0,6.0,47,0.00,,,0.00,,2013-01-24 14:54:00,
2013-01-24 10:04:00,35.0,15.0,30.16,North,10,3.0,14.0,43,0.00,,,0.00,,2013-01-24 15:04:00,
2013-01-24 10:13:00,35.0,15.0,30.16,North,10,3.0,14.0,43,0.00,,,0.00,,2013-01-24 15:13:00,
2013-01-24 10:23:00,34.0,14.0,30.18,WNW,284,2.0,9.0,43,0.00,,,0.00,,2013-01-24 15:23:00,
2013-01-24 10:33:00,34.0,14.0,30.18,WNW,284,2.0,9.0,43,0.00,,,0.00,,2013-01-24 15:33:00,
2013-01-24 10:43:00,35.0,14.0,30.19,WNW,288,2.0,6.0,42,0.00,,,0.00,,2013-01-24 15:43:00,
2013-01-24 10:53:00,35.0,14.0,30.20,NNW,340,3.0,8.0,41,0.00,,,0.00,,2013-01-24 15:53:00,
2013-01-24 11:03:00,35.0,13.0,30.22,NE,36,1.0,6.0,40,0.00,,,0.00,,2013-01-24 16:03:00,
2013-01-24 11:12:00,35.0,13.0,30.22,NE,36,1.0,6.0,40,0.00,,,0.00,,2013-01-24 16:12:00,
2013-01-24 11:23:00,34.0,12.0,30.22,WNW,284,2.0,6.0,39,0.00,,,0.00,,2013-01-24 16:23:00,
2013-01-24 11:33:00,34.0,11.0,30.24,West,269,2.0,6.0,38,0.00,,,0.00,,2013-01-24 16:33:00,
2013-01-24 11:43:00,34.0,11.0,30.24,West,269,2.0,6.0,38,0.00,,,0.00,,2013-01-24 16:43:00,
2013-01-24 12:03:00,34.0,9.0,30.26,NNW,342,3.0,9.0,34,0.00,,,0.00,,2013-01-24 17:03:00,
2013-01-24 12:12:00,34.0,9.0,30.26,NNW,342,3.0,9.0,34,0.00,,,0.00,,2013-01-24 17:12:00,
2013-01-24 12:22:00,34.0,7.0,30.26,NW,305,1.0,8.0,32,0.00,,,0.00,,2013-01-24 17:22:00,
2013-01-24 12:32:00,33.0,6.0,30.27,NNE,18,2.0,5.0,32,0.00,,,0.00,,2013-01-24 17:32:00,
2013-01-24 12:42:00,33.0,6.0,30.27,NNE,18,2.0,5.0,32,0.00,,,0.00,,2013-01-24 17:42:00,
2013-01-24 12:52:00,33.0,4.0,30.27,ENE,57,3.0,9.0,29,0.00,,,0.00,,2013-01-24 17:52:00,
2013-01-24 13:03:00,33.0,3.0,30.27,WNW,284,2.0,7.0,27,0.00,,,0.00,,2013-01-24 18:03:00,
2013-01-24 13:12:00,33.0,2.0,30.29,West,278,2.0,9.0,26,0.00,,,0.00,,2013-01-24 18:12:00,
2013-01-24 13:23:00,33.0,2.0,30.29,West,278,2.0,9.0,26,0.00,,,0.00,,2013-01-24 18:23:00,
2013-01-24 13:33:00,33.0,1.0,30.29,WNW,302,2.0,8.0,25,0.00,,,0.00,,2013-01-24 18:33:00,
2013-01-24 13:42:00,33.0,1.0,30.29,WNW,302,2.0,8.0,25,0.00,,,0.00,,2013-01-24 18:42:00,
2013-01-24 13:53:00,34.0,2.0,30.29,WNW,296,0.0,5.0,25,0.00,,,0.00,,2013-01-24 18:53:00,
2013-01-24 14:02:00,33.0,1.0,30.29,WNW,283,1.0,8.0,25,0.00,,,0.00,,2013-01-24 19:02:00,
2013-01-24 14:12:00,33.0,1.0,30.29,WNW,283,1.0,8.0,25,0.00,,,0.00,,2013-01-24 19:12:00,
2013-01-24 14:22:00,34.0,1.0,30.29,NW,306,3.0,9.0,24,0.00,,,0.00,,2013-01-24 19:22:00,
2013-01-24 14:33:00,34.0,2.0,30.29,NW,313,1.0,7.0,25,0.00,,,0.00,,2013-01-24 19:33:00,
2013-01-24 14:42:00,34.0,2.0,30.29,NW,313,1.0,7.0,25,0.00,,,0.00,,2013-01-24 19:42:00,
2013-01-24 14:53:00,33.0,0.0,30.30,NW,311,2.0,7.0,24,0.00,,,0.00,,2013-01-24 19:53:00,
2013-01-24 15:02:00,33.0,0.0,30.31,West,275,2.0,7.0,24,0.00,,,0.00,,2013-01-24 20:02:00,
2013-01-24 15:12:00,33.0,0.0,30.31,West,275,2.0,7.0,24,0.00,,,0.00,,2013-01-24 20:12:00,
2013-01-24 15:22:00,33.0,0.0,30.32,WNW,300,3.0,6.0,24,0.00,,,0.00,,2013-01-24 20:22:00,
2013-01-24 15:32:00,32.0,-1.0,30.32,West,266,2.0,6.0,24,0.00,,,0.00,,2013-01-24 20:32:00,
2013-01-24 15:42:00,32.0,-1.0,30.32,West,266,2.0,6.0,24,0.00,,,0.00,,2013-01-24 20:42:00,
2013-01-24 15:52:00,33.0,-1.0,30.34,WNW,286,2.0,7.0,23,0.00,,,0.00,,2013-01-24 20:52:00,
2013-01-24 16:02:00,33.0,-1.0,30.34,WNW,286,2.0,7.0,23,0.00,,,0.00,,2013-01-24 21:02:00,
2013-01-24 16:12:00,33.0,-1.0,30.34,WNW,286,2.0,7.0,23,0.00,,,0.00,,2013-01-24 21:12:00,
2013-01-24 16:22:00,32.0,-1.0,30.34,West,279,3.0,5.0,24,0.00,,,0.00,,2013-01-24 21:22:00,
2013-01-24 16:33:00,32.0,-1.0,30.35,WNW,293,1.0,3.0,24,0.00,,,0.00,,2013-01-24 21:33:00,
2013-01-24 16:43:00,32.0,-1.0,30.35,WNW,293,1.0,3.0,24,0.00,,,0.00,,2013-01-24 21:43:00,
2013-01-24 16:52:00,32.0,-1.0,30.35,WNW,293,1.0,3.0,24,0.00,,,0.00,,2013-01-24 21:52:00,
2013-01-24 17:03:00,31.0,-2.0,30.37,South,187,0.0,4.0,23,0.00,,,0.00,,2013-01-24 22:03:00,
2013-01-24 17:12:00,31.0,-2.0,30.37,South,187,0.0,4.0,23,0.00,,,0.00,,2013-01-24 22:12:00,
2013-01-24 17:22:00,31.0,-2.0,30.37,WNW,302,0.0,2.0,24,0.00,,,0.00,,2013-01-24 22:22:00,
2013-01-24 17:33:00,31.0,0.0,30.38,West,269,0.0,3.0,26,0.00,,,0.00,,2013-01-24 22:33:00,
2013-01-24 17:42:00,31.0,0.0,30.38,West,269,0.0,3.0,26,0.00,,,0.00,,2013-01-24 22:42:00,
2013-01-24 17:52:00,30.0,-1.0,30.38,NE,51,0.0,1.0,26,0.00,,,0.00,,2013-01-24 22:52:00,
2013-01-24 18:03:00,30.0,2.0,30.39,WSW,248,0.0,3.0,29,0.00,,,0.00,,2013-01-24 23:03:00,
2013-01-24 18:13:00,30.0,2.0,30.39,WSW,248,0.0,3.0,29,0.00,,,0.00,,2013-01-24 23:13:00,
2013-01-24 18:22:00,29.0,0.0,30.40,WSW,247,0.0,2.0,28,0.00,,,0.00,,2013-01-24 23:22:00,
2013-01-24 18:32:00,29.0,-1.0,30.40,WSW,246,0.0,2.0,27,0.00,,,0.00,,2013-01-24 23:32:00,
2013-01-24 18:42:00,29.0,-1.0,30.40,WSW,246,0.0,2.0,27,0.00,,,0.00,,2013-01-24 23:42:00,
2013-01-24 18:52:00,28.0,0.0,30.41,WSW,246,0.0,1.0,29,0.00,,,0.00,,2013-01-24 23:52:00,
2013-01-24 19:02:00,28.0,-2.0,30.42,WSW,246,0.0,1.0,27,0.00,,,0.00,,2013-01-25 00:02:00,
2013-01-24 19:12:00,28.0,-2.0,30.42,WSW,246,0.0,1.0,27,0.00,,,0.00,,2013-01-25 00:12:00,
2013-01-24 19:22:00,28.0,-2.0,30.43,WSW,246,0.0,1.0,27,0.00,,,0.00,,2013-01-25 00:22:00,
2013-01-24 19:32:00,28.0,-2.0,30.44,WSW,246,0.0,0.0,27,0.00,,,0.00,,2013-01-25 00:32:00,
2013-01-24 19:42:00,28.0,-2.0,30.44,WSW,246,0.0,0.0,27,0.00,,,0.00,,2013-01-25 00:42:00,
2013-01-24 19:52:00,28.0,-2.0,30.44,WSW,246,0.0,0.0,27,0.00,,,0.00,,2013-01-25 00:52:00,
2013-01-24 20:02:00,27.0,0.0,30.45,WSW,246,0.0,1.0,30,0.00,,,0.00,,2013-01-25 01:02:00,
2013-01-24 20:13:00,27.0,0.0,30.45,WSW,246,0.0,1.0,30,0.00,,,0.00,,2013-01-25 01:13:00,
2013-01-24 20:22:00,27.0,3.0,30.45,WSW,246,0.0,0.0,35,0.00,,,0.00,,2013-01-25 01:22:00,
2013-01-24 20:32:00,26.0,3.0,30.45,WSW,246,0.0,1.0,36,0.00,,,0.00,,2013-01-25 01:32:00,
2013-01-24 20:42:00,26.0,3.0,30.45,WSW,246,0.0,1.0,36,0.00,,,0.00,,2013-01-25 01:42:00,
2013-01-24 20:52:00,26.0,1.0,30.45,WSW,246,0.0,1.0,33,0.00,,,0.00,,2013-01-25 01:52:00,
2013-01-24 21:03:00,26.0,2.0,30.45,WSW,246,0.0,2.0,35,0.00,,,0.00,,2013-01-25 02:03:00,
2013-01-24 21:12:00,26.0,2.0,30.45,WSW,246,0.0,2.0,35,0.00,,,0.00,,2013-01-25 02:12:00,
2013-01-24 21:22:00,26.0,3.0,30.45,WSW,246,0.0,1.0,36,0.00,,,0.00,,2013-01-25 02:22:00,
2013-01-24 21:33:00,26.0,2.0,30.46,WSW,246,0.0,0.0,35,0.00,,,0.00,,2013-01-25 02:33:00,
2013-01-24 21:42:00,26.0,2.0,30.46,WSW,246,0.0,0.0,35,0.00,,,0.00,,2013-01-25 02:42:00,
2013-01-24 21:52:00,26.0,2.0,30.46,WSW,246,0.0,0.0,35,0.00,,,0.00,,2013-01-25 02:52:00,
2013-01-24 22:02:00,25.0,4.0,30.45,WSW,246,0.0,0.0,39,0.00,,,0.00,,2013-01-25 03:02:00,
2013-01-24 22:12:00,25.0,3.0,30.45,WSW,246,0.0,2.0,38,0.00,,,0.00,,2013-01-25 03:12:00,
2013-01-24 22:22:00,25.0,3.0,30.45,WSW,246,0.0,2.0,38,0.00,,,0.00,,2013-01-25 03:22:00,
2013-01-24 22:33:00,25.0,5.0,30.46,WSW,246,0.0,1.0,41,0.00,,,0.00,,2013-01-25 03:33:00,
2013-01-24 22:42:00,25.0,5.0,30.46,WSW,246,0.0,1.0,41,0.00,,,0.00,,2013-01-25 03:42:00,
2013-01-24 22:52:00,24.0,3.0,30.46,WSW,246,0.0,1.0,39,0.00,,,0.00,,2013-01-25 03:52:00,
2013-01-24 23:02:00,24.0,4.0,30.46,WSW,246,0.0,0.0,42,0.00,,,0.00,,2013-01-25 04:02:00,
2013-01-24 23:12:00,24.0,4.0,30.46,WSW,246,0.0,0.0,42,0.00,,,0.00,,2013-01-25 04:12:00,
2013-01-24 23:22:00,24.0,4.0,30.46,WSW,246,0.0,0.0,42,0.00,,,0.00,,2013-01-25 04:22:00,
2013-01-24 23:32:00,24.0,4.0,30.46,WSW,246,0.0,0.0,41,0.00,,,0.00,,2013-01-25 04:32:00,
2013-01-24 23:42:00,24.0,4.0,30.46,WSW,246,0.0,0.0,41,0.00,,,0.00,,2013-01-25 04:42:00,
2013-01-24 23:52:00,24.0,2.0,30.46,WSW,246,0.0,1.0,38,0.00,,,0.00,,2013-01-25 04:52:00,